Regional Weather Roundup
Issued by NWS

Home | Current Version | Previous Version | Graphics & Text | Print | Product List | Glossary On
Versions: 1 2 3 4 5 6 7 8 9 10 11 12 13 14 15 16 17 18 19 20 21 22 23 24 25 26 27 28 29 30 31 32 33 34 35 36 37 38 39 40 41 42 43 44 45 46 47 48 49 50
000
ASUS45 KTFX 251604
RWRMT
MONTANA HOURLY WEATHER ROUNDUP
NATIONAL WEATHER SERVICE GREAT FALLS MT
1004 AM MDT SAT OCT 25 2014

NOTE: "FAIR" INDICATES FEW OR NO CLOUDS BELOW 12000 FEET WITH NO
SIGNIFICANT WEATHER AND/OR OBSTRUCTIONS TO VISIBILITY.

* THESE STATIONS ARE NOT UNDER NWS QUALITY CONTROL. THEY DO NOT
   REPORT WEATHER SUCH AS PRECIPITATION OR FOG.

MTZ001>007-043-251700-
WEST OF THE DIVIDE
CITY           SKY/WX    TMP DP  RH WIND       PRES   REMARKS
KALISPELL      CLOUDY    45  39  80 NE6       29.87F
MISSOULA       PTSUNNY   45  43  93 SE6       29.91F
BUTTE          PTCLDY    36  34  92 CALM      29.99F
MULLAN PASS    FOG       36  36 100 S14       29.83F VSB M1/4 WCI  27
* ESSEX        N/A       39  34  82 SE6G12     N/A   WCI  35
* LINCOLN      N/A       31  31 100 E1         N/A
* LOOKOUT PASS N/A       40  40 100 S11G20     N/A   WCI  33
* POLSON       N/A       41  41 100 N/A        N/A
* RONAN APT    CLOUDY    39  37  93 N/A        N/A
* SEELEY LAKE  N/A       38  37  96 N/A        N/A
* THOMP F APT  CLOUDY    53  25  34 E4G12      N/A
* YAAK HILL    N/A       40  37  89 S1         N/A
$$

MTZ008-052>055-251700-
SOUTHWEST MONTANA
CITY           SKY/WX    TMP DP  RH WIND       PRES   REMARKS
BOZEMAN        FOG       32  32 100 SW3       30.01F VSB M1/4
DILLON         SUNNY     37  36  96 CALM      29.99F
W YELLOWSTONE  SUNNY     36  27  70 CALM      30.15F
* THREE FORKS  SUNNY     37  18  46 N/A        N/A
* BOULDER HILL N/A       36  31  82 S13        N/A   WCI  27
* MONIDA PASS  N/A       48  25  41 SE12       N/A
* RAYNOLDS PAS N/A       50  33  52 S16        N/A
* WHITEHALL    N/A       36  36 100 W4         N/A
* WISE RIVER   N/A       33  32  96 E2         N/A
$$

MTZ009>010-012-014-046-048-049-054-251700-
EAST SLOPES AND CENTRAL MONTANA
CITY           SKY/WX    TMP DP  RH WIND       PRES   REMARKS
CUT BANK       CLOUDY    45  32  60 SE8       29.92F
GREAT FALLS    SUNNY     45  41  86 CALM      29.93F
HELENA         PTSUNNY   39  37  93 CALM      29.97F
MALMSTROM AFB  SUNNY     41  37  86 NE2       29.95F
* CONRAD       PTSUNNY   39  37  93 N/A        N/A
* DEARBORN     N/A       35  35 100 N/A        N/A
* EAST GLACIER N/A       38  35  89 NW3        N/A
* MONARCH      N/A       46  31  56 NW4        N/A
* PENDROY      N/A       41  36  82 SE5        N/A
* ROGERS PASS  N/A       40  35  82 SE2G7      N/A
* SAINT MARY   N/A       34  32  92 SE2        N/A
* SWEET GRASS  N/A       42  28  58 S11        N/A
$$

MTZ011-013-016-021-035-040-045-047-050-051-251700-
NORTH CENTRAL MONTANA
CITY           SKY/WX    TMP DP  RH WIND       PRES   REMARKS
HAVRE          PTSUNNY   46  34  63 E14       29.96F
LEWISTOWN      SUNNY     48  39  71 SE10      29.97F
* CHESTER      N/A       45  29  54 E7         N/A
* DENTON       N/A       47  39  74 E8         N/A
* JUDITH GAP   N/A       46  41  83 S9         N/A
* LOMA         N/A       49  31  50 E15G20     N/A
$$

MTZ017>020-022>027-061-062-251700-
NORTHEAST MONTANA
CITY           SKY/WX    TMP DP  RH WIND       PRES   REMARKS
GLASGOW        PTCLDY    50  34  54 E10       30.06S
GLENDIVE       SUNNY     48  32  54 SE3       30.11F
JORDAN         SUNNY     45  34  65 E7        30.05F
SIDNEY         PTCLDY    46  36  68 CALM      30.14S
WOLF POINT     PTCLDY    48  36  63 E9        30.09F
* BEAVER HILL  N/A       55  28  35 SE10       N/A
* CIRCLE       N/A       48  36  63 N/A        N/A
* LINDSAY DVD  N/A       50  32  50 E9         N/A
* NAVAJO       N/A       41  28  60 SE2        N/A
$$

MTZ028>042-056>058-251700-
SOUTHCENTRAL AND SOUTHEAST MONTANA
CITY           SKY/WX    TMP DP  RH WIND       PRES   REMARKS
BAKER          SUNNY     54  34  47 SE13      30.12F
BILLINGS       SUNNY     41  34  76 SW8       30.02F
LIVINGSTON     SUNNY     37  34  89 N3        30.02F
MILES CITY     SUNNY     48  34  59 SE6       30.07F
* LAUREL APT   SUNNY     39  30  70 N/A        N/A
* ROUNDUP APT  SUNNY     37  34  89 N/A        N/A
* ALZADA       N/A       51  31  46 E9         N/A
* HYSHAM       N/A       53  31  43 SE6        N/A
* LAME DEER    N/A       50  31  48 SE8        N/A
* REED POINT   N/A       35  34  96 W8         N/A   WCI  28
* ROSCOE HILL  N/A       49  33  54 SW1G6      N/A
$$

REGIONAL REPORTS...DAKOTAS
CITY           SKY/WX    TMP DP  RH WIND       PRES   REMARKS
WILLISTON      CLOUDY    46  32  58 S6        30.13S
DICKINSON      SUNNY     54  34  47 SE3       30.12F
BEACH          N/A       54  30  40 S12       30.13F
CROSBY         SUNNY     46  34  63 S7        30.11F
TIOGA          SUNNY     45  32  60 CALM      30.15F
BISMARCK       PTCLDY    54  34  47 CALM      30.18S
GRAND FORKS    PTCLDY    54  30  40 NW15G22   30.08R
FARGO          PTCLDY    54  34  47 NW14      30.11R
BUFFALO SD     SUNNY     54  32  43 SE9       30.07F
RAPID CITY     SUNNY     54  36  51 S10       30.16F
$$

REGIONAL REPORTS...WYOMING/IDAHO/WASHINGTON
CITY           SKY/WX    TMP DP  RH WIND       PRES   REMARKS
GILLETTE       SUNNY     52  34  50 S23       30.10F
SHERIDAN       SUNNY     41  32  70 CALM      30.05F
CODY           SUNNY     54  28  37 CALM      30.06F
YELLOWSTONE LA SUNNY     41  30  65 CALM      30.22F
SALMON         CLOUDY    41  37  86 SW7       29.99F
MULLAN PASS    FOG       36  36 100 S14       29.83S VSB M1/4 WCI  27
SAND POINT     CLOUDY    45  37  74 E6        29.77F
SPOKANE        CLOUDY    46  41  83 E14       29.67F

$$




USA.gov is the U.S. government's official web portal to all federal, state and local government web resources and services.